Wetbulb
67.02 66.48 66.54 66.80 64.52 65.17 62.12 60.84 59.34 55.39 57.95 62.54 65.23 69.11 70.81 69.29 66.57 68.69 69.64 61.13 61.36 60.23 60.38 60.74 61.29 61.50 61.09 61.72 61.67 61.97 62.46 63.00 62.98 63.15 62.83 62.23 62.07 63.01
66.07 66.30 66.53 66.32 65.24 60.38 62.92 61.50 61.76 61.74 58.37 65.36 66.25 67.92 69.36 68.54 66.92 69.45 68.42 62.65 60.34 60.05 60.47 59.59 59.04 59.17 59.83 59.40 59.80 60.76 61.31 61.19 61.40 61.91 61.83 61.97 62.96 62.28
66.35 65.77 65.64 66.43 65.01 64.31 64.35 65.81 65.85 65.01 61.97 63.93 65.78 66.01 66.55 67.27 67.92 67.54 66.52 65.67 62.32 59.52 59.57 58.50 57.41 57.37 57.32 58.25 58.87 59.12 59.62 59.94 59.87 60.49 60.94 60.77 60.60 60.33
65.61 65.24 64.86 65.43 65.87 66.33 67.60 66.22 65.94 67.24 65.52 61.52 60.89 61.15 63.32 66.12 65.48 64.23 64.09 64.01 63.19 59.84 58.40 57.27 56.59 55.61 55.93 55.95 56.29 56.50 56.33 57.05 57.80 58.04 58.26 58.17 58.71 59.19
65.58 65.34 65.08 65.73 65.70 65.96 66.60 65.77 65.66 66.79 66.46 61.18 58.35 59.62 60.07 62.14 61.16 61.36 61.34 60.84 60.70 59.59 56.85 55.57 54.87 55.03 55.03 55.07 54.58 54.34 53.71 53.58 53.13 54.17 55.41 56.25 56.84 56.93
66.31 66.36 65.91 65.98 65.94 65.80 65.53 65.88 66.46 65.95 63.71 60.18 57.83 58.43 57.83 59.20 58.91 56.97 56.43 58.43 57.69 58.75 56.77 56.51 55.97 54.19 54.09 54.29 54.89 54.74 52.07 50.95 50.79 51.06 51.53 51.56 52.01 52.81
66.13 66.33 66.89 64.29 60.29 63.29 65.37 65.41 65.18 62.95 60.80 58.56 57.05 57.11 56.17 56.45 55.99 57.45 56.59 56.89 56.95 58.65 59.13 58.67 58.94 59.10 57.70 56.19 57.16 54.54 51.27 50.23 49.62 49.85 49.63 48.63 48.17 48.58
65.12 65.45 65.90 61.85 59.42 55.53 55.95 57.48 62.35 63.83 61.37 58.79 56.55 55.43 55.85 55.61 56.71 56.63 55.91 54.83 53.39 58.37 55.81 55.12 59.35 57.29 58.46 59.78 53.27 50.36 49.42 49.23 49.10 48.96 48.07 47.15 46.77 46.30
63.13 63.31 63.48 62.47 61.50 62.47 53.52 53.07 53.63 53.04 58.36 62.09 57.49 57.39 57.06 58.29 57.71 56.82 56.45 55.23 55.28 56.31 57.04 51.44 57.06 55.47 57.43 54.35 49.62 48.56 48.10 47.79 47.83 47.65 46.90 46.27 45.39 44.40
62.90 63.33 63.52 62.43 61.79 62.65 62.43 61.83 62.08 62.82 62.63 62.00 60.25 59.02 58.61 58.60 60.09 57.44 57.66 55.57 56.32 56.45 56.93 50.59 56.17 58.07 59.28 59.03 48.77 48.13 47.37 46.69 46.60 46.50 46.11 45.31 44.03 43.32
60.11 61.87 62.89 61.80 49.82 50.29 62.43 60.13 59.00 57.66 51.47 51.45 50.65 48.27 47.04 48.78 54.66 58.30 55.06 54.01 53.06 54.42 57.92 53.90 53.57 56.38 59.20 58.96 57.57 48.00 46.82 46.25 46.18 45.97 45.56 44.72 43.46 42.97
60.36 60.38 51.72 56.15 44.91 48.82 61.49 59.63 56.80 57.20 56.91 55.20 54.14 50.95 53.27 51.80 50.99 57.18 56.10 53.80 54.86 54.67 60.05 57.05 57.42 58.29 57.05 60.44 60.51 56.64 54.99 46.09 45.45 45.05 44.74 44.28 43.17 48.26
57.64 57.44 55.81 44.72 44.54 46.72 52.70 60.68 56.69 57.18 53.76 56.37 56.04 55.79 56.01 57.01 58.40 59.24 59.50 59.84 58.11 58.52 59.86 60.91 59.34 59.54 60.07 58.39 59.46 59.92 59.06 55.76 53.13 49.01 42.82 43.02 42.40 44.41
57.98 57.22 50.33 43.46 44.00 46.34 52.99 44.71 45.96 52.47 56.99 56.17 55.53 55.33 56.04 57.84 59.77 62.11 63.96 63.32 63.84 63.26 62.64 62.79 60.95 60.03 58.72 57.56 56.83 59.01 58.94 58.86 57.63 55.59 55.08 48.31 41.69 41.48
58.75 47.95 42.88 42.73 43.27 45.89 44.71 45.63 48.22 57.32 56.74 56.09 56.05 57.04 58.77 60.68 62.86 62.38 63.54 63.84 63.45 63.32 62.24 62.97 61.62 61.34 60.48 59.48 58.90 58.54 57.57 58.42 58.95 58.09 57.88 57.08 55.98 52.69
49.25 52.28 50.90 51.58 50.69 52.59 53.47 52.90 60.77 60.43 59.15 59.70 59.80 60.75 61.94 61.78 61.14 61.89 61.16 61.27 60.63 59.47 61.70 62.34 62.61 62.28 59.80 59.89 60.30 60.47 60.51 59.05 60.85 59.59 59.08 59.21 59.17 58.47
58.37 59.54 59.30 58.85 58.19 58.32 58.88 59.86 62.17 61.08 61.30 61.69 61.38 61.16 61.03 61.64 62.02 62.47 61.48 59.92 58.49 59.39 58.77 60.23 61.88 62.61 61.99 62.17 60.24 61.33 61.79 62.46 63.33 62.94 61.12 59.42 60.54 60.77
59.38 60.02 60.00 60.02 59.66 60.68 60.77 61.11 62.41 59.64 61.66 61.94 62.16 62.19 61.44 60.98 60.98 61.46 61.23 59.65 58.63 60.19 60.09 60.34 60.35 59.84 60.56 61.72 58.47 61.80 62.83 63.07 64.04 64.18 63.58 61.25 60.60 62.18
59.61 60.62 60.29 60.40 60.22 60.53 61.59 61.59 61.79 62.35 64.02 63.51 62.91 62.82 62.67 62.54 60.46 60.54 60.26 59.78 59.15 60.08 61.03 62.26 61.98 60.90 59.14 58.55 63.10 54.41 62.82 63.15 63.14 62.97 63.53 62.60 61.36 62.05
59.59 60.33 61.48 62.32 62.74 63.03 62.99 63.42 63.27 63.67 63.66 63.53 63.27 63.08 62.55 61.57 60.07 60.06 60.42 60.44 60.38 61.26 61.95 63.18 63.23 62.46 60.96 60.51 60.81 63.35 43.80 63.47 62.68 61.66 62.08 63.42 62.31 44.58
61.68 60.91 61.93 62.21 63.08 63.70 63.77 64.02 64.23 64.11 63.42 63.27 62.90 62.51 62.38 61.85 60.72 60.38 60.81 51.28 54.23 61.51 61.25 61.94 63.46 47.96 64.78 64.28 60.99 60.90 62.72 44.36 55.01 62.11 62.16 61.25 60.55 60.91
62.40 62.54 62.60 63.21 63.86 64.35 64.50 64.50 64.41 63.65 63.82 63.81 63.50 63.15 62.67 62.23 61.66 61.75 61.76 61.09 61.07 61.08 61.59 62.97 64.24 64.15 63.53 61.86 60.52 60.94 61.47 64.25 47.00 43.17 41.33 46.40 58.43 57.45
64.47 65.00 64.99 65.16 65.05 64.74 64.95 64.67 64.10 64.56 64.41 64.29 64.40 64.12 63.97 62.96 63.42 63.13 62.80 62.76 62.69 62.34 62.65 62.20 62.75 62.88 61.95 62.25 57.78 61.84 62.21 62.74 63.48 58.66 55.24 41.28 41.19 41.69
MSLP
1008.25 1008.33 1008.40 1008.42 1007.75 1008.70 1009.35 1009.56 1009.98 1010.32 1010.52 1010.67 1010.52 1010.76 1010.78 1011.05 1011.30 1011.40 1011.93 1013.11 1013.59 1014.29 1014.78 1015.37 1016.14 1017.05 1017.92 1018.59 1019.11 1019.78 1020.29 1020.84 1021.14 1021.70 1022.16 1022.40 1022.83 1023.24
1007.67 1007.81 1008.06 1008.23 1008.07 1009.22 1009.02 1009.56 1009.83 1010.01 1010.21 1010.33 1010.51 1010.68 1010.97 1011.14 1011.63 1011.73 1012.19 1013.28 1013.93 1014.60 1015.13 1015.98 1016.76 1017.61 1018.35 1018.98 1019.67 1020.26 1020.71 1020.98 1021.43 1021.91 1022.32 1022.73 1023.12 1023.45
1007.22 1007.46 1007.66 1007.93 1007.73 1007.98 1008.29 1008.90 1009.42 1009.69 1009.78 1010.61 1010.85 1011.42 1011.55 1011.73 1011.99 1012.63 1013.09 1013.64 1014.64 1015.12 1015.78 1016.48 1017.40 1018.12 1018.80 1019.47 1020.08 1020.57 1020.94 1021.32 1021.78 1022.27 1022.69 1023.04 1023.31 1023.55
1006.90 1007.11 1007.27 1007.49 1007.62 1007.93 1008.33 1008.50 1008.78 1009.24 1009.46 1010.34 1011.70 1012.14 1012.22 1012.38 1012.80 1013.24 1013.65 1014.31 1014.97 1015.82 1016.26 1017.16 1017.92 1018.58 1019.16 1019.89 1020.50 1020.86 1021.32 1021.83 1022.20 1022.55 1022.82 1023.14 1023.44 1023.81
1006.67 1006.63 1006.84 1007.25 1007.50 1007.92 1008.26 1008.41 1008.64 1009.19 1009.70 1010.69 1011.87 1012.54 1012.97 1013.11 1013.49 1014.00 1014.43 1015.08 1015.89 1016.61 1017.23 1017.92 1018.66 1019.23 1019.78 1020.30 1020.87 1021.36 1021.68 1022.03 1022.32 1022.60 1022.99 1023.35 1023.74 1024.12
1006.32 1006.25 1006.53 1006.78 1007.17 1007.85 1008.19 1008.30 1008.66 1009.26 1009.90 1011.14 1012.13 1012.73 1013.26 1013.77 1014.02 1014.41 1015.40 1016.00 1016.68 1017.60 1018.13 1018.86 1019.49 1020.16 1020.38 1021.00 1021.33 1021.69 1021.97 1022.21 1022.54 1022.98 1023.33 1023.64 1023.93 1024.28
1006.49 1006.33 1006.52 1006.97 1007.38 1008.18 1008.15 1008.50 1008.83 1009.49 1010.35 1011.37 1012.22 1012.96 1013.60 1013.96 1014.35 1014.99 1015.59 1016.54 1017.57 1017.93 1018.86 1019.62 1020.01 1020.54 1021.04 1021.34 1021.64 1022.07 1022.40 1022.62 1022.85 1023.21 1023.49 1023.86 1024.26 1024.65
1006.58 1006.61 1007.33 1007.91 1008.38 1008.82 1008.94 1009.04 1009.21 1009.58 1010.33 1011.18 1012.16 1012.87 1013.63 1014.09 1014.75 1015.20 1015.88 1016.61 1017.83 1018.98 1019.17 1019.85 1020.20 1020.82 1021.11 1021.34 1021.82 1022.29 1022.55 1022.77 1023.03 1023.32 1023.77 1024.09 1024.40 1024.75
1007.22 1007.47 1007.66 1008.25 1008.67 1009.07 1009.52 1009.73 1010.05 1010.15 1010.55 1011.15 1012.06 1012.79 1013.48 1014.01 1014.46 1015.47 1016.28 1016.85 1017.71 1018.87 1019.10 1020.39 1020.84 1021.07 1021.33 1021.85 1022.21 1022.41 1022.64 1022.90 1023.18 1023.44 1023.76 1024.14 1024.41 1024.56
1007.74 1007.82 1007.95 1008.57 1008.82 1009.09 1009.53 1009.93 1010.39 1010.89 1011.32 1011.63 1012.63 1013.35 1014.00 1014.55 1014.90 1015.60 1016.34 1017.37 1018.41 1019.12 1019.47 1020.40 1020.85 1020.68 1020.71 1021.42 1022.38 1022.55 1022.75 1022.95 1023.25 1023.57 1023.82 1024.01 1024.22 1024.41
1008.54 1008.50 1008.60 1008.85 1009.39 1009.48 1009.44 1010.20 1011.01 1011.85 1012.11 1012.41 1013.24 1014.07 1014.76 1015.18 1015.27 1015.79 1016.92 1017.54 1018.46 1019.32 1019.56 1020.14 1020.86 1020.54 1020.44 1020.86 1021.63 1022.54 1022.91 1023.14 1023.31 1023.43 1023.57 1023.80 1024.07 1024.40
1008.98 1009.24 1009.54 1009.71 1009.99 1010.09 1010.26 1010.83 1011.54 1012.23 1012.87 1013.81 1014.61 1015.23 1015.46 1015.98 1016.09 1016.32 1016.68 1017.38 1017.94 1018.76 1019.02 1019.29 1019.63 1019.45 1019.51 1019.73 1020.19 1021.74 1022.23 1022.87 1023.01 1023.11 1023.32 1023.51 1023.68 1023.54
1009.43 1009.83 1010.26 1010.47 1010.73 1010.79 1010.93 1011.32 1012.14 1012.77 1013.50 1014.07 1014.80 1015.46 1016.05 1016.32 1016.51 1016.75 1016.94 1016.98 1017.28 1017.21 1018.19 1018.29 1018.49 1018.45 1017.77 1018.67 1019.51 1019.96 1020.55 1021.01 1021.74 1022.40 1022.89 1022.88 1023.11 1023.10
1009.77 1010.35 1010.89 1011.02 1011.24 1011.51 1011.65 1012.32 1012.84 1013.29 1013.81 1014.33 1014.95 1015.49 1015.97 1016.22 1016.42 1016.27 1016.45 1016.52 1016.57 1016.43 1017.44 1018.09 1017.63 1017.89 1017.68 1017.82 1018.28 1018.99 1019.55 1019.73 1020.13 1020.33 1020.55 1021.11 1022.15 1022.52
1010.32 1011.01 1011.31 1011.46 1011.69 1012.10 1012.47 1012.93 1013.23 1013.59 1013.98 1014.36 1014.81 1015.23 1015.43 1015.70 1015.87 1016.47 1016.70 1016.84 1017.06 1016.98 1017.61 1017.78 1017.17 1017.54 1017.34 1016.98 1017.09 1017.87 1018.45 1018.68 1018.96 1019.05 1019.12 1019.16 1019.32 1020.20
1011.23 1011.58 1011.69 1011.74 1011.94 1012.53 1012.94 1013.11 1012.88 1013.22 1013.45 1013.72 1014.19 1014.67 1015.16 1015.68 1015.94 1016.24 1016.50 1016.73 1016.20 1017.14 1017.71 1017.75 1017.68 1017.46 1017.22 1017.14 1016.97 1016.96 1017.33 1017.43 1017.59 1018.04 1018.18 1018.09 1017.98 1018.01
1010.91 1011.34 1011.52 1011.82 1012.28 1012.60 1012.70 1012.76 1012.54 1012.86 1012.92 1013.32 1013.74 1014.26 1014.71 1014.87 1014.96 1015.31 1015.48 1015.91 1015.72 1015.96 1016.91 1017.46 1017.79 1017.62 1017.28 1017.18 1016.88 1016.74 1016.59 1016.42 1016.48 1016.64 1017.14 1016.94 1016.64 1016.38
1010.62 1010.51 1010.88 1011.36 1011.65 1011.68 1011.79 1012.10 1012.14 1012.73 1012.97 1013.16 1013.31 1013.43 1013.70 1014.03 1014.27 1014.76 1014.85 1015.05 1015.23 1015.19 1015.44 1016.03 1016.76 1017.03 1017.03 1016.87 1017.19 1016.53 1016.05 1015.74 1015.58 1015.66 1015.85 1015.67 1015.24 1014.97
1010.57 1010.38 1010.57 1010.92 1011.09 1011.18 1011.09 1011.36 1011.56 1012.20 1012.18 1012.24 1012.53 1012.80 1013.10 1013.41 1014.03 1014.24 1014.37 1014.57 1014.69 1014.72 1014.75 1014.94 1015.52 1015.88 1015.55 1015.04 1014.80 1015.55 1015.48 1015.11 1014.79 1014.46 1014.52 1014.49 1014.22 1014.01
1010.77 1010.56 1010.50 1010.37 1010.32 1010.40 1010.56 1010.55 1010.95 1011.44 1011.74 1011.82 1012.18 1012.53 1012.87 1013.14 1013.63 1013.64 1013.77 1013.91 1013.97 1014.02 1014.01 1014.02 1014.29 1014.78 1014.70 1014.29 1014.03 1013.95 1015.11 1014.60 1014.27 1013.99 1013.69 1013.43 1013.05 1013.88
1010.07 1010.26 1009.95 1009.96 1010.04 1010.28 1010.45 1010.49 1010.68 1011.00 1011.46 1011.71 1012.00 1012.30 1012.61 1012.80 1012.93 1013.15 1013.08 1013.39 1013.52 1013.43 1013.21 1013.18 1013.45 1014.20 1014.15 1014.12 1013.84 1013.67 1013.66 1014.25 1013.73 1013.74 1013.69 1013.46 1012.99 1012.74
1009.64 1009.72 1009.95 1010.05 1009.90 1009.93 1010.09 1010.38 1010.45 1010.98 1011.39 1011.48 1011.59 1011.86 1012.14 1012.35 1012.31 1012.41 1012.51 1012.56 1012.86 1013.03 1012.79 1012.59 1012.73 1013.06 1013.19 1013.12 1012.77 1012.64 1012.48 1011.98 1013.54 1013.75 1013.90 1013.74 1013.21 1012.62
1008.09 1008.19 1008.56 1008.99 1009.29 1009.67 1009.77 1009.93 1010.37 1010.43 1010.75 1011.01 1011.08 1011.31 1011.53 1011.65 1011.83 1011.76 1011.78 1011.88 1011.85 1011.74 1011.79 1011.85 1011.89 1011.89 1011.83 1011.97 1012.13 1012.00 1011.85 1011.66 1011.52 1012.29 1012.35 1012.00 1012.35 1012.88
Wind_Speed
8 7 5 5 5 5 3 3 3 3 3 5 4 6 5 6 7 8 10 12 15 15 19 21 23 22 20 18 15 13 13 11 13 13 13 12 11 8
5 7 6 5 6 5 6 5 3 2 3 5 3 7 6 5 5 6 8 13 20 21 22 20 19 17 15 13 11 10 10 13 13 12 10 9 12 13
7 7 8 8 7 8 8 7 6 5 7 5 5 4 6 8 8 8 9 10 11 21 21 20 16 15 14 13 11 11 12 13 12 11 12 13 13 13
9 8 8 7 8 5 5 7 6 6 5 10 4 2 4 8 8 9 7 7 11 16 21 19 17 14 14 13 12 13 13 12 13 12 13 13 13 13
10 9 8 9 9 7 7 7 5 6 5 8 4 2 3 4 7 8 9 10 8 19 17 17 14 15 13 13 12 11 13 13 12 13 12 11 11 11
8 8 8 9 9 8 7 7 7 7 9 8 5 4 3 4 7 10 9 9 11 9 13 11 11 13 13 12 12 11 10 12 12 11 11 11 11 10
6 7 7 3 6 7 5 7 6 8 9 10 6 5 6 5 9 7 11 10 10 10 10 8 7 8 7 10 9 10 9 10 11 11 11 10 9 9
5 4 7 8 8 4 4 4 8 11 12 10 7 9 8 9 9 10 12 12 7 5 8 6 6 6 5 4 8 9 8 9 10 10 10 10 10 10
5 7 7 6 9 9 8 10 10 10 10 11 12 12 13 13 13 13 13 10 8 7 11 5 3 6 4 5 7 8 9 9 9 10 10 10 11 11
4 7 8 9 8 11 12 11 11 11 12 10 11 10 10 11 13 12 11 10 10 7 7 4 4 8 7 7 6 7 8 9 8 9 10 11 11 11
5 4 8 6 9 9 12 11 11 8 11 14 14 15 13 11 10 14 11 11 9 5 5 4 5 6 7 8 8 9 6 7 8 10 11 11 10 8
4 7 5 6 7 7 12 11 10 10 13 13 12 13 12 9 10 9 11 11 9 7 8 8 10 9 7 7 7 9 9 9 9 11 11 11 12 9
5 4 4 9 9 7 11 11 11 12 13 12 10 10 10 7 6 8 11 11 11 8 11 8 11 10 6 7 8 9 9 9 10 10 12 13 14 14
7 5 4 10 10 11 9 15 14 12 9 9 9 10 9 9 10 9 8 8 3 4 15 10 8 9 7 6 7 9 9 9 9 10 11 13 19 18
7 8 9 11 12 12 16 16 12 9 9 9 9 9 11 10 11 8 5 6 3 8 13 8 7 9 7 5 6 6 7 9 10 10 10 11 11 11
11 6 6 8 10 11 12 11 8 10 11 11 10 10 10 9 9 9 9 8 7 8 12 7 5 6 7 6 5 6 7 6 9 10 10 11 11 12
11 10 9 9 10 10 7 6 8 9 10 10 10 10 10 10 10 9 8 9 7 9 9 9 8 7 6 7 7 8 8 9 9 9 11 11 11 12
8 9 10 10 10 9 8 10 9 9 8 9 10 10 10 10 9 9 8 9 8 7 7 8 8 8 8 11 13 10 9 10 9 10 11 12 12 12
7 8 9 10 9 6 7 9 9 9 11 10 9 10 9 9 8 9 8 8 8 8 8 8 8 9 10 11 5 19 10 9 10 10 10 11 12 12
6 6 8 8 7 8 9 8 8 8 8 8 8 8 8 8 9 8 9 9 9 9 9 10 10 10 12 11 10 6 23 11 10 11 12 11 11 1
6 8 7 7 7 7 6 7 9 9 9 9 9 9 9 8 9 10 9 9 9 10 11 11 11 11 10 10 11 12 11 25 16 13 12 12 13 13
8 8 7 7 7 7 8 8 7 7 9 9 9 9 9 9 10 10 10 10 12 12 11 10 10 10 10 12 14 15 12 12 12 14 12 11 11 12
8 8 9 10 10 10 9 8 9 9 10 10 10 10 10 10 11 11 11 12 12 12 13 12 11 11 13 12 13 12 18 16 12 11 13 23 22 15
Wind_Direction
213 220 215 240 227 151 137 165 152 146 168 194 160 179 166 163 132 173 153 153 131 136 130 135 142 141 144 150 148 157 152 171 137 138 146 148 157 146
212 208 209 200 220 133 176 186 199 225 141 165 153 155 150 136 99 141 121 140 133 139 136 134 132 132 137 139 135 147 138 127 127 138 141 139 128 136
221 205 205 190 204 183 205 181 186 202 165 119 106 115 129 143 122 108 136 136 134 136 134 125 121 131 126 125 129 118 120 126 130 121 118 122 133 137
210 201 198 188 195 187 212 203 193 173 181 147 106 71 67 111 115 114 111 123 138 135 124 124 129 120 122 119 124 128 123 115 122 126 130 142 140 143
213 193 201 187 191 197 191 203 193 162 141 135 109 80 68 102 91 85 100 100 107 115 106 101 105 108 111 111 117 124 124 134 135 134 142 139 138 143
198 198 203 189 188 181 199 193 182 152 124 124 109 110 96 97 106 116 104 109 108 108 82 95 107 97 105 118 114 123 136 134 140 141 139 141 144 146
196 199 196 139 114 166 182 191 169 138 138 136 123 118 127 130 129 126 114 116 108 116 115 113 116 113 104 92 114 132 135 140 139 150 148 146 144 139
201 157 109 106 98 82 49 170 146 166 154 145 139 142 136 127 134 131 127 125 122 111 117 89 114 106 119 141 119 132 136 146 156 152 144 154 156 158
141 145 147 120 153 147 101 99 78 57 138 153 147 151 144 148 138 136 136 130 120 137 124 78 111 122 141 129 112 141 162 166 158 156 160 160 172 181
114 146 135 146 156 151 151 144 143 140 140 147 143 134 133 140 140 131 116 103 106 109 119 94 172 161 169 136 152 166 177 177 169 164 170 181 189 195
85 101 134 147 139 169 144 125 110 85 61 97 108 107 105 103 126 126 125 133 126 130 171 114 185 174 177 177 167 190 187 182 183 186 191 192 197 199
109 129 140 116 135 155 131 132 117 124 115 109 105 97 105 101 93 115 136 139 142 147 180 164 181 172 186 193 180 177 195 201 200 202 203 201 195 223
113 116 113 117 110 104 127 134 123 122 117 122 120 117 120 124 125 153 163 165 170 175 168 190 190 193 204 156 195 195 203 176 206 204 213 217 204 222
112 108 105 113 107 113 114 114 116 121 123 124 129 133 142 154 160 166 164 171 165 289 161 228 180 189 201 176 183 190 206 217 204 221 218 207 207 218
107 97 112 102 99 92 120 131 141 131 135 138 144 150 155 153 152 145 142 127 106 147 162 206 200 190 227 197 178 179 197 213 220 229 230 231 226 207
106 113 109 103 98 120 146 164 158 148 152 150 148 146 147 156 164 170 176 187 155 154 180 189 216 206 216 234 249 225 198 238 192 224 236 241 238 234
136 148 134 126 132 158 162 189 152 153 150 150 150 154 164 172 175 176 182 181 208 159 175 191 211 232 252 275 240 237 245 245 235 234 219 246 249 247
153 148 141 147 164 166 170 153 164 150 165 162 165 172 167 178 171 180 191 191 205 196 189 182 187 214 226 230 228 253 257 258 252 242 243 256 259 257
157 158 155 165 168 174 167 163 165 168 174 166 171 179 178 187 173 188 199 200 208 214 209 201 201 219 237 242 250 215 236 249 259 254 244 254 258 263
167 173 177 182 176 176 176 172 163 164 185 175 178 185 190 195 190 209 205 210 216 215 223 214 218 224 239 255 271 271 202 247 252 262 268 265 259 117
189 189 203 189 186 184 193 188 183 181 188 188 190 192 195 205 203 212 219 218 225 231 233 233 235 221 242 261 260 258 257 219 238 247 262 266 269 278
188 198 195 206 202 215 192 200 207 176 193 204 206 204 206 213 222 218 225 229 214 237 246 252 249 230 227 246 253 258 263 269 220 253 249 249 269 267
192 194 184 194 197 199 209 207 207 219 209 212 218 217 219 223 226 233 234 231 240 241 230 237 243 246 248 245 251 259 260 264 268 219 219 211 229 245